Waarnemingen

Advertentie
Mijn weer
Berus, Duitsland (10704): temperatuur & dauwpunt: 18.02.2017 16:00:00 - 24.02.2017 16:00:00 (CET)Berus, Duitsland (10704): temperatuur 5cm & temperatuur -5cm: 18.02.2017 16:00:00 - 24.02.2017 16:00:00 (CET)Berus, Duitsland (10704): temperatuur -20cm & temperatuur -100cm: 18.02.2017 16:00:00 - 24.02.2017 16:00:00 (CET)Berus, Duitsland (10704): windsnelheid & windstoten: 18.02.2017 16:00:00 - 24.02.2017 16:00:00 (CET)Berus, Duitsland (10704): windrichting: 18.02.2017 16:00:00 - 24.02.2017 16:00:00 (CET)Berus, Duitsland (10704): luchtdruk: 18.02.2017 16:00:00 - 24.02.2017 16:00:00 (CET)Berus, Duitsland (10704): zicht: 18.02.2017 16:00:00 - 24.02.2017 16:00:00 (CET)Berus, Duitsland (10704): Zonneschijnduur: 18.02.2017 16:00:00 - 24.02.2017 16:00:00 (CET)Berus, Duitsland (10704): neerslag: 18.02.2017 16:00:00 - 24.02.2017 16:00:00 (CET)
Datum & Tijd tt [°C] td [°C] tt 5cm [°C] tt -5cm [°C] tt -20cm [°C] tt -100cm [°C] ff [km/u] ff [kn] fx [km/u] fx [kn] dd ppp [hPa] vv [km] sd [min] rr [mm]
24.02.2017 16:00:00 5,7 2,0 8,3 7,9 5,6 5,5 16 9 29 16 WZW 1015,8 45 56 0,0
24.02.2017 15:00:00 4,1 0,6 4,9 6,9 5,4 5,5 10 6 31 17 W 1015,5 70 12 0,0
24.02.2017 14:00:00 4,9 1,7 5,5 6,7 5,2 5,5 9 5 26 14 NNW 1015,2 43 4 0,2
24.02.2017 13:00:00 5,8 0,9 6,5 6,5 5,0 5,5 9 5 21 11 WNW 1014,8 58 0 0,0
24.02.2017 12:00:00 5,5 0,7 6,3 5,7 4,8 5,5 11 6 24 13 W 1014,8 59 3 0,0
24.02.2017 11:00:00 4,5 1,4 4,7 4,9 4,7 5,5 14 8 26 14 W 1014,5 50 27 0,0
24.02.2017 10:00:00 3,9 1,3 4,2 3,8 4,7 5,4 18 10 29 16 W 1013,9 54 59 0,0
24.02.2017 09:00:00 3,1 1,6 2,9 2,9 4,8 5,4 18 10 28 15 W 1013,2 39 26 0,0
24.02.2017 08:00:00 2,2 1,2 1,0 3,0 5,0 5,4 16 8 32 17 W 1012,6 37 0 0,0
24.02.2017 07:00:00 2,5 1,5 1,1 3,4 5,1 5,4 22 12 36 19 WZW 1011,5 39 0 0,0
24.02.2017 06:00:00 3,0 2,0 1,9 3,9 5,2 5,4 21 11 37 20 WZW 1010,7 33 0 0,1
24.02.2017 05:00:00 3,3 2,2 2,7 4,0 5,4 5,4 22 12 39 21 WZW 1009,8 35 0 0,0
24.02.2017 04:00:00 2,8 2,0 2,2 4,2 5,5 5,4 23 13 49 27 W 1009,1 46 0 1,1
24.02.2017 03:00:00 5,0 1,1 4,5 4,5 5,6 5,4 39 21 58 31 WZW 1007,5 42 0 0,0
24.02.2017 02:00:00 5,2 0,9 4,7 4,6 5,8 5,4 39 21 61 33 WZW 1007,1 44 0 0,0
24.02.2017 01:00:00 5,5 0,7 4,9 4,8 5,9 5,4 38 20 62 34 WZW 1005,7 43 0 0,0
24.02.2017 00:00:00 5,8 0,6 5,2 5,0 6,0 5,4 41 22 64 35 ZW 1004,7 46 0 0,0
23.02.2017 23:00:00 6,3 0,8 5,5 5,2 6,2 5,4 44 24 68 37 WZW 1004,0 53 0 0,0
23.02.2017 22:00:00 6,5 1,6 5,1 5,6 6,3 5,4 45 24 99 54 WZW 1003,0 54 0 0,0
23.02.2017 21:00:00 7,2 4,6 6,0 6,0 6,4 5,3 35 19 71 38 WZW 1002,1 45 0 0,0
23.02.2017 20:00:00 6,9 5,5 5,6 6,5 6,4 5,3 39 21 70 38 WZW 1001,8 45 0 0,1
23.02.2017 19:00:00 6,9 6,4 6,4 6,6 6,5 5,3 41 22 75 40 ZW 1001,0 23 0 0,9
23.02.2017 18:00:00 7,8 5,2 7,4 6,8 6,5 5,3 50 27 79 43 ZW 1000,4 41 0 0,0
23.02.2017 17:00:00 8,0 5,0 7,2 6,9 6,5 5,3 49 27 72 39 ZW 1000,4 31 0 0,2
23.02.2017 16:00:00 7,6 4,7 7,0 7,1 6,5 5,3 48 26 74 40 ZW 1000,6 18 0 0,0
23.02.2017 15:00:00 8,0 4,4 8,0 7,4 6,4 5,3 44 24 70 38 ZW 1001,5 30 0 0,0
23.02.2017 14:00:00 8,1 4,3 8,4 7,7 6,3 5,3 41 22 66 35 ZW 1002,4 28 2 0,0
23.02.2017 13:00:00 8,0 4,7 8,8 7,2 6,2 5,3 34 18 54 29 ZW 1003,6 27 0 0,0
23.02.2017 12:00:00 7,1 4,4 7,8 6,7 6,1 5,3 38 21 55 30 ZW 1004,3 21 0 0,0
23.02.2017 11:00:00 6,5 4,4 6,8 6,2 6,1 5,2 28 15 53 29 ZW 1006,0 16 0 0,0
23.02.2017 10:00:00 6,3 4,3 6,2 6,1 6,2 5,2 29 16 47 26 ZW 1006,9 15 0 0,0
23.02.2017 09:00:00 6,4 4,1 6,2 6,0 6,2 5,2 31 17 46 25 ZW 1007,6 18 0 0,0
23.02.2017 08:00:00 6,6 4,4 6,1 6,0 6,2 5,2 27 14 44 24 ZZW 1008,5 19 0 0,0
23.02.2017 07:00:00 6,7 4,5 6,0 6,1 6,3 5,2 25 14 46 25 ZW 1009,0 21 0 0,0
23.02.2017 06:00:00 6,9 4,7 6,1 6,2 6,4 5,2 31 17 50 27 ZW 1009,6 22 0 0,0
23.02.2017 05:00:00 7,0 4,7 6,1 6,4 6,4 5,2 29 16 48 26 ZW 1010,3 24 0 0,0
23.02.2017 04:00:00 6,9 6,1 6,4 6,5 6,4 5,2 34 19 61 33 ZW 1011,0 11 0 0,0
23.02.2017 03:00:00 7,1 6,1 6,6 6,5 6,5 5,2 34 18 48 26 ZW 1011,3 14 0 0,0
23.02.2017 02:00:00 7,2 6,1 6,6 6,6 6,5 5,1 33 18 53 29 ZW 1012,1 13 0 0,0
23.02.2017 01:00:00 7,3 6,1 6,5 6,6 6,5 5,1 37 20 58 31 ZW 1012,4 12 0 0,0
23.02.2017 00:00:00 6,8 6,5 6,4 6,6 6,6 5,1 37 20 59 32 ZW 1012,8 7 0 0,0
22.02.2017 23:00:00 6,7 6,7 6,4 6,7 6,6 5,1 36 20 58 32 ZW 1013,1 4,6 0 0,1
22.02.2017 22:00:00 6,9 6,7 6,5 6,8 6,7 5,1 40 22 68 37 ZW 1013,3 5 0 0,0
22.02.2017 21:00:00 7,0 6,9 6,7 6,9 6,7 5,1 39 21 66 35 ZW 1013,1 7 0 0,1
22.02.2017 20:00:00 7,0 7,0 6,7 7,0 6,7 5,1 43 23 67 36 ZW 1013,0 3,7 0 0,0
22.02.2017 19:00:00 7,0 7,0 6,8 7,1 6,8 5,1 43 23 68 37 ZW 1012,8 3,5 0 0,3
22.02.2017 18:00:00 7,1 7,1 7,0 7,3 6,8 5,0 40 21 68 37 ZW 1013,1 3,0 0 0,2
22.02.2017 17:00:00 7,4 7,2 7,1 7,5 6,8 5,0 42 23 65 35 ZW 1013,0 6 0 0,0
22.02.2017 16:00:00 7,7 7,1 7,3 7,6 6,8 5,0 42 23 64 35 ZW 1013,4 13 0 0,0
22.02.2017 15:00:00 7,6 7,3 7,4 7,6 6,7 5,0 40 22 62 34 ZW 1013,8 8 0 0,0
22.02.2017 14:00:00 7,6 7,1 7,3 7,5 6,7 5,0 37 20 59 32 ZW 1014,4 12 0 0,0
22.02.2017 13:00:00 7,4 7,2 7,4 7,4 6,7 5,0 39 21 63 34 ZW 1014,5 6 0 0,0
22.02.2017 12:00:00 7,3 7,2 7,2 7,4 6,7 5,0 33 18 60 32 ZW 1015,3 6 0 0,0
22.02.2017 11:00:00 7,6 7,2 7,4 7,3 6,7 5,0 37 20 64 35 WZW 1015,3 17 0 0,1
22.02.2017 10:00:00 7,4 7,4 7,3 7,3 6,7 5,0 32 17 54 29 ZW 1015,2 5 0 0,1
22.02.2017 09:00:00 7,4 7,4 7,3 7,2 6,7 5,0 32 17 59 32 WZW 1015,2 7 0 0,3
22.02.2017 08:00:00 7,9 6,9 7,3 7,2 6,8 4,9 36 19 60 32 WZW 1014,4 11 0 0,0
22.02.2017 07:00:00 8,3 7,2 7,5 7,3 6,8 4,9 32 17 54 29 ZW 1014,5 26 0 0,0
22.02.2017 06:00:00 8,4 7,4 7,7 7,4 6,8 4,9 31 17 61 33 ZW 1015,0 11 0 0,0
22.02.2017 05:00:00 8,4 8,0 7,9 7,5 6,8 4,9 39 21 59 32 ZW 1015,3 6 0 0,0
22.02.2017 04:00:00 8,6 8,4 8,2 7,6 6,8 4,9 29 16 50 27 ZW 1015,4 10 0 0,0
22.02.2017 03:00:00 8,7 8,6 8,3 7,6 6,8 4,9 28 15 53 29 ZW 1016,1 8 0 0,1
22.02.2017 02:00:00 8,7 8,7 8,5 7,7 6,8 4,9 29 16 50 27 ZW 1016,9 4,7 0 0,4
22.02.2017 01:00:00 8,8 8,8 8,5 7,6 6,8 4,9 31 17 48 26 ZW 1017,2 3,2 0 0,2
22.02.2017 00:00:00 8,7 8,7 8,5 7,6 6,8 4,9 30 16 48 26 ZW 1017,6 2,7 0 0,1
21.02.2017 23:00:00 8,4 8,4 8,3 7,6 6,8 4,9 29 15 45 25 ZW 1017,7 0,7 0 0,1
21.02.2017 22:00:00 8,4 8,4 8,1 7,6 6,8 4,9 23 12 40 22 ZW 1018,0 4,6 0 0,0
21.02.2017 21:00:00 8,3 8,3 8,1 7,7 6,8 4,8 25 14 35 19 ZW 1018,4 4,2 0 0,0
21.02.2017 20:00:00 8,3 8,3 8,1 7,7 6,8 4,8 24 13 38 21 ZW 1018,6 3,0 0 0,1
21.02.2017 19:00:00 8,3 8,3 8,0 7,9 6,8 4,8 19 10 33 18 ZW 1018,9 6 0 0,0
21.02.2017 18:00:00 8,3 8,3 8,1 8,2 6,8 4,8 19 11 39 21 ZW 1018,8 25 0 0,0
21.02.2017 17:00:00 8,5 8,1 8,3 8,5 6,8 4,8 22 12 40 22 WZW 1018,5 33 0 0,0
21.02.2017 16:00:00 8,8 8,2 8,6 8,7 6,7 4,8 26 14 41 22 WZW 1018,3 54 0 0,1
21.02.2017 15:00:00 9,3 8,9 9,2 8,6 6,5 4,8 24 13 42 23 WZW 1018,3 70 0 0,5
21.02.2017 14:00:00 9,5 9,4 9,5 8,5 6,4 4,8 23 12 41 22 WZW 1018,3 10 0 0,1
21.02.2017 13:00:00 9,3 9,3 9,5 8,2 6,2 4,8 27 15 46 25 WZW 1018,6 7 0 0,5
21.02.2017 12:00:00 9,3 9,0 9,2 7,9 6,1 4,8 26 14 43 23 WZW 1018,8 24 0 0,0
21.02.2017 11:00:00 9,0 9,0 9,0 7,6 6,0 4,8 21 11 39 21 WZW 1018,6 9 0 0,0
21.02.2017 10:00:00 8,9 8,9 8,8 7,4 5,9 4,8 26 14 41 22 WZW 1018,2 7 0 0,1
21.02.2017 09:00:00 8,9 8,9 8,9 7,2 5,8 4,8 24 13 41 22 WZW 1017,9 3,0 0 1,0
21.02.2017 08:00:00 8,9 8,9 8,7 7,0 5,8 4,8 26 14 44 24 WZW 1017,7 1,4 0 0,3
21.02.2017 07:00:00 8,9 8,9 8,7 6,9 5,7 4,8 27 15 42 23 WZW 1017,1 2,4 0 0,1
21.02.2017 06:00:00 8,6 8,6 8,4 6,8 5,6 4,8 25 14 44 24 ZW 1017,0 0,2 0 0,3
21.02.2017 05:00:00 8,5 8,5 8,3 6,6 5,6 4,7 28 15 43 23 ZW 1017,1 0,2 0 0,1
21.02.2017 04:00:00 8,2 8,2 8,1 6,5 5,5 4,7 32 17 46 25 ZW 1017,7 0,1 0 0,0
21.02.2017 03:00:00 8,0 8,0 7,8 6,4 5,5 4,7 26 14 44 24 ZW 1018,4 0,1 0 0,1
21.02.2017 02:00:00 7,8 7,8 7,6 6,3 5,4 4,7 26 14 41 22 ZW 1019,1 0,1 0 0,0
21.02.2017 01:00:00 7,5 7,5 7,3 6,2 5,4 4,7 25 14 42 23 ZW 1019,6 0,1 0 0,0
21.02.2017 00:00:00 7,4 7,4 7,2 6,2 5,3 4,7 25 14 44 24 ZW 1019,6 0,2 0 0,0
20.02.2017 23:00:00 7,3 7,3 7,1 6,1 5,3 4,7 27 15 42 23 ZW 1019,7 0,3 0 0,0
20.02.2017 22:00:00 7,1 7,1 7,0 6,1 5,3 4,7 27 14 40 22 ZW 1019,9 0,1 0 0,2
20.02.2017 21:00:00 7,1 7,1 6,9 6,0 5,2 4,7 29 16 49 26 ZW 1020,3 1,2 0 0,0
20.02.2017 20:00:00 7,0 7,0 6,8 6,0 5,2 4,7 31 17 44 24 ZW 1020,2 0,3 0 0,1
20.02.2017 19:00:00 6,9 6,9 6,8 6,0 5,2 4,7 28 15 43 23 ZW 1020,4 0,3 0 0,2
20.02.2017 18:00:00 7,0 7,0 6,8 6,1 5,1 4,7 30 16 43 23 ZW 1020,1 2,0 0 0,3
20.02.2017 17:00:00 6,9 6,9 6,8 6,2 5,1 4,7 27 15 40 22 ZW 1020,1 2,2 0 0,4
20.02.2017 16:00:00 7,1 6,8 6,9 6,2 5,0 4,7 29 16 48 26 ZW 1020,6 2,4 0 0,0
20.02.2017 15:00:00 7,4 6,4 7,4 6,2 4,9 4,7 29 16 48 26 ZW 1020,9 7 0 0,0
20.02.2017 14:00:00 7,4 6,0 7,4 6,0 4,7 4,7 31 17 46 25 ZW 1021,4 15 0 0,0
20.02.2017 13:00:00 6,7 5,9 6,9 5,8 4,6 4,7 29 16 41 22 ZW 1022,2 8 0 0,0
20.02.2017 12:00:00 6,8 5,5 7,2 5,6 4,5 4,7 24 13 43 23 ZW 1023,1 8 0 0,0
20.02.2017 11:00:00 6,4 5,3 6,4 5,3 4,4 4,7 26 14 38 20 ZW 1023,4 6 0 0,0
20.02.2017 10:00:00 5,5 5,5 5,6 4,8 4,4 4,7 24 13 36 19 ZW 1023,7 2,2 0 0,0
20.02.2017 09:00:00 5,3 5,2 5,1 4,6 4,4 4,7 22 12 37 20 ZW 1023,4 3,0 0 0,0
20.02.2017 08:00:00 4,9 4,9 4,7 4,4 4,4 4,7 16 9 26 14 ZW 1023,3 2,1 0 0,0
20.02.2017 07:00:00 4,9 4,9 4,7 4,4 4,4 4,7 16 9 27 14 ZW 1023,5 1,6 0 0,0
20.02.2017 06:00:00 4,8 4,8 4,6 4,3 4,4 4,7 19 10 31 17 ZW 1023,3 1,9 0 0,0
20.02.2017 05:00:00 5,0 4,4 4,8 4,2 4,4 4,7 14 7 19 10 ZW 1023,6 4,2 0 0,0
20.02.2017 04:00:00 5,2 4,2 4,8 4,1 4,4 4,7 13 7 27 14 WZW 1023,7 6 0 0,0
20.02.2017 03:00:00 5,1 4,0 4,4 4,2 4,5 4,6 19 10 28 15 WZW 1024,1 7 0 0,0
20.02.2017 02:00:00 5,1 3,6 4,4 4,4 4,5 4,6 13 7 25 13 WZW 1024,3 7 0 0,0
20.02.2017 01:00:00 5,4 3,4 4,8 4,5 4,6 4,6 18 10 28 15 WZW 1024,4 9 0 0,0
20.02.2017 00:00:00 5,6 3,3 4,9 4,6 4,6 4,6 16 9 23 13 ZW 1024,0 10 0 0,0
19.02.2017 23:00:00 5,9 3,0 5,3 4,8 4,7 4,6 14 8 25 13 ZW 1024,2 12 0 0,0
19.02.2017 22:00:00 6,4 2,9 5,8 4,9 4,7 4,6 18 10 29 16 WZW 1024,1 13 0 0,0
19.02.2017 21:00:00 6,7 2,3 6,0 5,0 4,8 4,6 19 11 29 15 WZW 1023,7 16 0 0,0
19.02.2017 20:00:00 6,9 2,1 6,3 5,2 4,8 4,6 16 9 26 14 WZW 1023,5 20 0 0,0
19.02.2017 19:00:00 7,2 2,1 6,5 5,6 4,8 4,6 18 10 28 15 WZW 1023,3 20 0 0,0
19.02.2017 18:00:00 7,5 1,8 6,3 6,3 4,8 4,6 16 9 27 15 WZW 1022,8 19 0 0,0
19.02.2017 17:00:00 8,2 2,3 8,0 7,2 4,5 4,6 16 9 31 17 WZW 1022,7 17 24 0,0
19.02.2017 16:00:00 8,6 2,0 9,3 7,3 4,2 4,6 21 12 39 21 WZW 1022,9 17 25 0,0
19.02.2017 15:00:00 8,2 2,4 8,7 7,3 3,8 4,6 20 11 31 17 ZW 1022,9 16 11 0,0
19.02.2017 14:00:00 8,4 3,0 10,1 7,0 3,3 4,6 21 11 32 17 ZZW 1023,5 13 59 0,0
19.02.2017 13:00:00 7,4 1,9 8,1 5,3 2,9 4,6 13 7 21 11 ZW 1024,6 12 54 0,0
19.02.2017 12:00:00 6,1 2,1 7,9 2,5 2,7 4,6 11 6 15 8 ZZW 1025,4 9 37 0,0
19.02.2017 11:00:00 3,6 0,5 3,9 1,0 2,7 4,6 10 5 15 8 ZW 1025,8 8 51 0,0
19.02.2017 10:00:00 1,7 -0,3 2,3 1,1 2,8 4,5 8 4 11 6 ZW 1026,3 5 60 0,0
19.02.2017 09:00:00 1,2 -0,6 -0,1 1,1 2,9 4,5 6 3 8 4 WZW 1026,4 4,8 36 0,0
19.02.2017 08:00:00 -0,5 -0,9 -4,6 1,2 3,0 4,5 6 3 8 4 Z 1025,9 3,0 0 0,0
19.02.2017 07:00:00 -0,2 -0,8 -4,1 1,2 3,2 4,5 4 2 7 4 NO 1025,5 4,9 0 0,0
19.02.2017 06:00:00 0,4 -0,9 -3,3 1,3 3,3 4,5 6 4 8 5 O 1025,6 6 0 0,0
19.02.2017 05:00:00 0,5 -0,9 -2,5 1,5 3,4 4,5 7 4 10 6 NO 1025,6 6 0 0,0
19.02.2017 04:00:00 1,2 -0,5 -2,2 1,6 3,6 4,5 8 4 13 7 NO 1025,8 6 0 0,0
19.02.2017 03:00:00 1,5 -0,3 -1,5 1,7 3,7 4,5 9 5 14 8 NNO 1026,5 6 0 0,0
19.02.2017 02:00:00 1,1 -0,3 -1,7 1,8 3,9 4,5 9 5 11 6 NNO 1026,7 6 0 0,0
19.02.2017 01:00:00 1,6 -0,2 -0,9 1,9 4,2 4,5 10 5 14 7 NNO 1026,6 7 0 0,0
19.02.2017 00:00:00 1,9 -0,3 -1,0 2,1 4,4 4,5 10 5 13 7 NNO 1026,8 10 0 0,0
18.02.2017 23:00:00 2,2 -0,4 -0,7 2,3 4,7 4,5 9 5 13 7 NNO 1026,8 11 0 0,0
18.02.2017 22:00:00 3,2 -0,2 0,7 2,9 5,0 4,4 10 6 15 8 NO 1026,9 15 0 0,0
18.02.2017 21:00:00 3,2 0,0 -0,2 3,6 5,3 4,4 9 5 14 8 NO 1027,0 13 0 0,0
18.02.2017 20:00:00 3,7 0,3 1,0 4,4 5,6 4,4 10 6 18 10 NO 1027,0 15 0 0,0
18.02.2017 19:00:00 4,8 0,5 2,9 5,3 5,8 4,4 12 6 21 11 ONO 1026,9 20 0 0,0
18.02.2017 18:00:00 5,3 0,6 3,4 6,6 5,8 4,4 11 6 19 11 NO 1026,7 22 41 0,0
18.02.2017 17:00:00 6,9 0,3 6,4 7,8 5,7 4,4 10 5 22 12 NO 1026,3 26 33 0,0
18.02.2017 16:00:00 7,0 0,5 7,5 8,3 5,5 4,4 14 8 21 12 NO 1026,2 28 14 0,0

tt = temperatuur
td = dauwpunt
tt 5cm = temperatuur 5cm
tt -5cm = temperatuur -5cm
tt -20cm = temperatuur -20cm
tt -100cm = temperatuur -100cm
ff = windsnelheid
fx = windstoten
dd = windrichting
ppp = luchtdruk
vv = zicht
sd = Zonneschijnduur
rr = neerslag

Weerstations in de omgeving